Time,TemperatureF,DewpointF,PressureIn,WindDirection,WindDirectionDegrees,WindSpeedMPH,WindSpeedGustMPH,Humidity,HourlyPrecipIn,Conditions,Clouds,dailyrainin,SoftwareType,DateUTC
2013-01-08 00:03:00,36.7,26.8,30.01,South,180,6.5,7.8,67,0.00,,,0.00,WUHU216HW,2013-01-08 06:03:00,
2013-01-08 00:08:00,36.7,27.2,30.01,South,180,5.6,6.7,68,0.00,,,0.00,WUHU216HW,2013-01-08 06:08:00,
2013-01-08 00:13:00,36.7,26.8,30.01,South,180,6.0,6.7,67,0.00,,,0.00,WUHU216HW,2013-01-08 06:13:00,
2013-01-08 00:18:00,36.7,27.2,30.01,SSW,203,6.0,8.7,68,0.00,,,0.00,WUHU216HW,2013-01-08 06:18:00,
2013-01-08 00:23:00,36.5,27.0,30.01,SSW,203,5.8,8.7,68,0.00,,,0.00,WUHU216HW,2013-01-08 06:23:00,
2013-01-08 00:28:00,36.4,26.8,30.01,SSW,203,5.4,6.9,68,0.00,,,0.00,WUHU216HW,2013-01-08 06:28:00,
2013-01-08 00:33:00,36.2,26.7,30.01,SW,225,4.0,6.9,68,0.00,,,0.00,WUHU216HW,2013-01-08 06:33:00,
2013-01-08 00:38:00,36.0,26.8,30.01,SSW,203,3.8,5.4,69,0.00,,,0.00,WUHU216HW,2013-01-08 06:38:00,
2013-01-08 00:43:00,35.8,27.0,30.01,South,180,5.8,5.8,70,0.00,,,0.00,WUHU216HW,2013-01-08 06:43:00,
2013-01-08 00:48:00,35.6,26.8,30.01,SW,225,7.4,7.4,70,0.00,,,0.00,WUHU216HW,2013-01-08 06:48:00,
2013-01-08 00:53:00,35.8,27.0,30.01,SSW,203,5.4,7.4,70,0.00,,,0.00,WUHU216HW,2013-01-08 06:53:00,
2013-01-08 00:58:00,35.8,27.0,30.00,SSW,203,5.4,7.4,70,0.00,,,0.00,WUHU216HW,2013-01-08 06:58:00,
2013-01-08 01:03:00,35.6,26.8,30.00,SSW,203,6.5,6.5,70,0.00,,,0.00,WUHU216HW,2013-01-08 07:03:00,
2013-01-08 01:08:00,35.6,26.8,30.00,South,180,5.4,6.7,70,0.00,,,0.00,WUHU216HW,2013-01-08 07:08:00,
2013-01-08 01:13:00,35.3,26.8,30.01,South,180,5.8,6.7,71,0.00,,,0.00,WUHU216HW,2013-01-08 07:13:00,
2013-01-08 01:18:00,35.1,26.7,30.01,SSW,203,3.8,6.5,71,0.00,,,0.00,WUHU216HW,2013-01-08 07:18:00,
2013-01-08 01:23:00,34.9,26.7,30.01,SSW,203,6.9,6.9,72,0.00,,,0.00,WUHU216HW,2013-01-08 07:23:00,
2013-01-08 01:28:00,35.1,26.7,30.01,SSW,203,4.3,6.9,71,0.00,,,0.00,WUHU216HW,2013-01-08 07:28:00,
2013-01-08 01:33:00,34.9,26.7,30.01,SSW,203,4.5,6.3,72,0.00,,,0.00,WUHU216HW,2013-01-08 07:33:00,
2013-01-08 01:38:00,34.7,26.6,30.01,SSW,203,4.7,6.3,72,0.00,,,0.00,WUHU216HW,2013-01-08 07:38:00,
2013-01-08 01:43:00,34.7,26.6,30.01,SSW,203,4.0,4.7,72,0.00,,,0.00,WUHU216HW,2013-01-08 07:43:00,
2013-01-08 01:48:00,34.6,26.4,30.02,SSW,203,5.4,5.4,72,0.00,,,0.00,WUHU216HW,2013-01-08 07:48:00,
2013-01-08 01:53:00,34.4,26.2,30.02,SSW,203,2.9,5.4,72,0.00,,,0.00,WUHU216HW,2013-01-08 07:53:00,
2013-01-08 01:58:00,34.2,26.0,30.01,SSW,203,5.4,5.4,72,0.00,,,0.00,WUHU216HW,2013-01-08 07:58:00,
2013-01-08 02:03:00,34.2,26.0,30.01,SW,225,3.8,6.9,72,0.00,,,0.00,WUHU216HW,2013-01-08 08:03:00,
2013-01-08 02:08:00,34.2,26.4,30.02,SSW,203,4.0,6.9,73,0.00,,,0.00,WUHU216HW,2013-01-08 08:08:00,
2013-01-08 02:13:00,34.2,26.4,30.02,South,180,4.9,5.1,73,0.00,,,0.00,WUHU216HW,2013-01-08 08:13:00,
2013-01-08 02:18:00,34.0,26.2,30.02,South,180,3.8,5.6,73,0.00,,,0.00,WUHU216HW,2013-01-08 08:18:00,
2013-01-08 02:23:00,33.8,26.0,30.02,SSW,203,3.6,5.6,73,0.00,,,0.00,WUHU216HW,2013-01-08 08:23:00,
2013-01-08 02:28:00,33.7,25.8,30.02,SSW,203,5.1,5.1,73,0.00,,,0.00,WUHU216HW,2013-01-08 08:28:00,
2013-01-08 02:33:00,33.8,26.0,30.02,SSE,158,4.9,5.1,73,0.00,,,0.00,WUHU216HW,2013-01-08 08:33:00,
2013-01-08 02:38:00,33.8,26.3,30.02,SSW,203,4.0,5.1,74,0.00,,,0.00,WUHU216HW,2013-01-08 08:38:00,
2013-01-08 02:43:00,34.2,26.4,30.02,SSW,203,4.9,5.6,73,0.00,,,0.00,WUHU216HW,2013-01-08 08:43:00,
2013-01-08 02:48:00,34.0,26.2,30.02,SSW,203,4.0,5.6,73,0.00,,,0.00,WUHU216HW,2013-01-08 08:48:00,
2013-01-08 02:53:00,33.8,26.0,30.02,SSW,203,5.4,5.4,73,0.00,,,0.00,WUHU216HW,2013-01-08 08:53:00,
2013-01-08 02:58:00,33.8,26.3,30.02,South,180,4.3,6.0,74,0.00,,,0.00,WUHU216HW,2013-01-08 08:58:00,
2013-01-08 03:03:00,33.8,26.3,30.02,SSW,203,5.4,6.0,74,0.00,,,0.00,WUHU216HW,2013-01-08 09:03:00,
2013-01-08 03:08:00,33.8,26.3,30.02,South,180,4.7,5.6,74,0.00,,,0.00,WUHU216HW,2013-01-08 09:08:00,
2013-01-08 03:13:00,33.7,26.2,30.02,South,180,3.8,5.6,74,0.00,,,0.00,WUHU216HW,2013-01-08 09:13:00,
2013-01-08 03:18:00,33.5,26.0,30.02,South,180,5.1,5.8,74,0.00,,,0.00,WUHU216HW,2013-01-08 09:18:00,
2013-01-08 03:23:00,33.3,25.8,30.02,South,180,5.8,6.3,74,0.00,,,0.00,WUHU216HW,2013-01-08 09:23:00,
2013-01-08 03:28:00,33.3,26.2,30.02,SSW,203,4.7,6.3,75,0.00,,,0.00,WUHU216HW,2013-01-08 09:28:00,
2013-01-08 03:33:00,33.5,26.3,30.02,SSW,203,5.4,6.5,75,0.00,,,0.00,WUHU216HW,2013-01-08 09:33:00,
2013-01-08 03:38:00,33.5,26.3,30.02,South,180,5.8,6.5,75,0.00,,,0.00,WUHU216HW,2013-01-08 09:38:00,
2013-01-08 03:43:00,33.5,26.3,30.02,SSW,203,5.6,5.8,75,0.00,,,0.00,WUHU216HW,2013-01-08 09:43:00,
2013-01-08 03:48:00,33.5,26.3,30.02,South,180,4.0,5.8,75,0.00,,,0.00,WUHU216HW,2013-01-08 09:48:00,
2013-01-08 03:53:00,33.5,26.3,30.02,SW,225,8.1,8.1,75,0.00,,,0.00,WUHU216HW,2013-01-08 09:53:00,
2013-01-08 03:58:00,33.5,26.0,30.02,SSW,203,6.0,8.1,74,0.00,,,0.00,WUHU216HW,2013-01-08 09:58:00,
2013-01-08 04:03:00,33.3,26.2,30.02,SSW,203,5.4,8.1,75,0.00,,,0.00,WUHU216HW,2013-01-08 10:03:00,
2013-01-08 04:08:00,33.3,26.2,30.01,SSW,203,8.3,8.3,75,0.00,,,0.00,WUHU216HW,2013-01-08 10:08:00,
2013-01-08 04:13:00,33.3,26.2,30.01,SSW,203,5.8,8.3,75,0.00,,,0.00,WUHU216HW,2013-01-08 10:13:00,
2013-01-08 04:18:00,33.3,26.2,30.01,SSW,203,4.7,8.3,75,0.00,,,0.00,WUHU216HW,2013-01-08 10:18:00,
2013-01-08 04:23:00,33.3,26.2,30.00,SSW,203,4.9,6.5,75,0.00,,,0.00,WUHU216HW,2013-01-08 10:23:00,
2013-01-08 04:28:00,33.3,26.5,30.00,South,180,4.7,7.4,76,0.00,,,0.00,WUHU216HW,2013-01-08 10:28:00,
2013-01-08 04:33:00,33.3,26.2,30.00,SSW,203,6.9,7.4,75,0.00,,,0.00,WUHU216HW,2013-01-08 10:33:00,
2013-01-08 04:38:00,33.3,26.2,30.00,SSW,203,6.0,6.9,75,0.00,,,0.00,WUHU216HW,2013-01-08 10:38:00,
2013-01-08 04:43:00,33.3,26.2,30.00,South,180,9.2,9.2,75,0.00,,,0.00,WUHU216HW,2013-01-08 10:43:00,
2013-01-08 04:48:00,33.3,26.2,30.00,South,180,6.7,9.2,75,0.00,,,0.00,WUHU216HW,2013-01-08 10:48:00,
2013-01-08 04:53:00,33.1,26.3,30.00,SSW,203,8.3,9.2,76,0.00,,,0.00,WUHU216HW,2013-01-08 10:53:00,
2013-01-08 04:58:00,33.1,26.3,30.00,SSW,203,7.6,8.3,76,0.00,,,0.00,WUHU216HW,2013-01-08 10:58:00,
2013-01-08 05:03:00,33.3,26.5,30.00,SSW,203,4.0,7.6,76,0.00,,,0.00,WUHU216HW,2013-01-08 11:03:00,
2013-01-08 05:08:00,33.1,26.3,30.00,SSW,203,6.0,6.7,76,0.00,,,0.00,WUHU216HW,2013-01-08 11:08:00,
2013-01-08 05:13:00,33.1,26.3,30.00,SSW,203,6.3,6.7,76,0.00,,,0.00,WUHU216HW,2013-01-08 11:13:00,
2013-01-08 05:18:00,33.1,26.3,30.00,South,180,5.4,6.3,76,0.00,,,0.00,WUHU216HW,2013-01-08 11:18:00,
2013-01-08 05:23:00,33.1,26.3,30.00,South,180,5.6,5.6,76,0.00,,,0.00,WUHU216HW,2013-01-08 11:23:00,
2013-01-08 05:28:00,33.1,26.3,30.00,SSW,203,5.6,5.6,76,0.00,,,0.00,WUHU216HW,2013-01-08 11:28:00,
2013-01-08 05:33:00,33.1,26.3,30.00,SSW,203,5.6,5.6,76,0.00,,,0.00,WUHU216HW,2013-01-08 11:33:00,
2013-01-08 05:38:00,33.1,26.3,30.00,SSW,203,4.9,5.6,76,0.00,,,0.00,WUHU216HW,2013-01-08 11:38:00,
2013-01-08 05:43:00,33.3,26.5,30.00,SSW,203,5.1,5.8,76,0.00,,,0.00,WUHU216HW,2013-01-08 11:43:00,
2013-01-08 05:48:00,33.5,26.6,30.00,SSW,203,5.1,5.8,76,0.00,,,0.00,WUHU216HW,2013-01-08 11:48:00,
2013-01-08 05:53:00,33.5,26.6,30.00,SSW,203,4.7,5.1,76,0.00,,,0.00,WUHU216HW,2013-01-08 11:53:00,
2013-01-08 05:58:00,33.5,26.6,30.00,South,180,8.5,8.5,76,0.00,,,0.00,WUHU216HW,2013-01-08 11:58:00,
2013-01-08 06:03:00,33.5,26.6,30.00,SSW,203,6.7,8.5,76,0.00,,,0.00,WUHU216HW,2013-01-08 12:03:00,
2013-01-08 06:08:00,33.5,26.6,30.00,South,180,7.8,8.5,76,0.00,,,0.00,WUHU216HW,2013-01-08 12:08:00,
2013-01-08 06:14:00,33.5,26.3,30.00,South,180,7.4,7.8,75,0.00,,,0.00,WUHU216HW,2013-01-08 12:14:00,
2013-01-08 06:19:00,33.5,26.3,30.00,SSW,203,7.6,7.8,75,0.00,,,0.00,WUHU216HW,2013-01-08 12:19:00,
2013-01-08 06:24:00,33.5,26.3,30.00,South,180,7.4,7.6,75,0.00,,,0.00,WUHU216HW,2013-01-08 12:24:00,
2013-01-08 06:29:00,33.5,26.3,30.00,South,180,5.1,7.4,75,0.00,,,0.00,WUHU216HW,2013-01-08 12:29:00,
2013-01-08 06:34:00,33.5,26.3,30.00,SSW,203,6.9,7.8,75,0.00,,,0.00,WUHU216HW,2013-01-08 12:34:00,
2013-01-08 06:39:00,33.3,26.2,30.00,SSW,203,5.6,7.8,75,0.00,,,0.00,WUHU216HW,2013-01-08 12:39:00,
2013-01-08 06:44:00,33.3,26.5,30.00,South,180,5.4,7.6,76,0.00,,,0.00,WUHU216HW,2013-01-08 12:44:00,
2013-01-08 06:49:00,33.3,26.5,30.00,SSW,203,9.2,9.2,76,0.00,,,0.00,WUHU216HW,2013-01-08 12:49:00,
2013-01-08 06:54:00,33.3,26.5,30.00,SW,225,5.4,9.2,76,0.00,,,0.00,WUHU216HW,2013-01-08 12:54:00,
2013-01-08 06:59:00,33.3,26.5,30.00,SSW,203,5.6,9.2,76,0.00,,,0.00,WUHU216HW,2013-01-08 12:59:00,
2013-01-08 07:04:00,33.3,26.5,30.00,SSW,203,6.9,6.9,76,0.00,,,0.00,WUHU216HW,2013-01-08 13:04:00,
2013-01-08 07:09:00,33.1,26.3,30.00,SSW,203,7.6,7.8,76,0.00,,,0.00,WUHU216HW,2013-01-08 13:09:00,
2013-01-08 07:14:00,33.1,26.3,30.00,South,180,8.5,8.5,76,0.00,,,0.00,WUHU216HW,2013-01-08 13:14:00,
2013-01-08 07:19:00,33.1,26.3,30.00,SSW,203,7.6,8.5,76,0.00,,,0.00,WUHU216HW,2013-01-08 13:19:00,
2013-01-08 07:24:00,33.3,26.2,30.00,SSW,203,8.1,8.5,75,0.00,,,0.00,WUHU216HW,2013-01-08 13:24:00,
2013-01-08 07:29:00,33.5,26.3,30.00,SSW,203,8.3,8.5,75,0.00,,,0.00,WUHU216HW,2013-01-08 13:29:00,
2013-01-08 07:34:00,33.5,26.3,30.01,SSW,203,6.9,8.5,75,0.00,,,0.00,WUHU216HW,2013-01-08 13:34:00,
2013-01-08 07:39:00,33.3,26.2,30.00,SSW,203,6.9,8.1,75,0.00,,,0.00,WUHU216HW,2013-01-08 13:39:00,
2013-01-08 07:44:00,33.5,26.3,30.00,SSW,203,5.4,6.9,75,0.00,,,0.00,WUHU216HW,2013-01-08 13:44:00,
2013-01-08 07:49:00,33.5,26.0,30.00,SW,225,7.2,7.2,74,0.00,,,0.00,WUHU216HW,2013-01-08 13:49:00,
2013-01-08 07:53:00,33.5,26.0,30.00,SSW,203,7.4,7.4,74,0.00,,,0.00,WUHU216HW,2013-01-08 13:53:00,
2013-01-08 07:58:00,33.5,26.0,30.00,South,180,6.0,7.4,74,0.00,,,0.00,WUHU216HW,2013-01-08 13:58:00,
2013-01-08 08:04:00,33.7,26.2,30.01,SSW,203,6.7,7.4,74,0.00,,,0.00,WUHU216HW,2013-01-08 14:04:00,
2013-01-08 08:09:00,33.8,26.3,30.01,SSW,203,6.0,6.7,74,0.00,,,0.00,WUHU216HW,2013-01-08 14:09:00,
2013-01-08 08:14:00,34.0,26.2,30.01,SSW,203,6.9,6.9,73,0.00,,,0.00,WUHU216HW,2013-01-08 14:14:00,
2013-01-08 08:19:00,34.2,26.4,30.01,SSW,203,8.5,8.5,73,0.00,,,0.00,WUHU216HW,2013-01-08 14:19:00,
2013-01-08 08:24:00,34.4,26.6,30.01,SSW,203,7.6,8.5,73,0.00,,,0.00,WUHU216HW,2013-01-08 14:24:00,
2013-01-08 08:29:00,34.9,27.1,30.01,South,180,6.9,7.8,73,0.00,,,0.00,WUHU216HW,2013-01-08 14:29:00,
2013-01-08 08:34:00,34.9,26.7,30.01,SSW,203,6.0,7.8,72,0.00,,,0.00,WUHU216HW,2013-01-08 14:34:00,
2013-01-08 08:39:00,34.9,26.7,30.01,South,180,5.4,7.6,72,0.00,,,0.00,WUHU216HW,2013-01-08 14:39:00,
2013-01-08 08:44:00,35.3,26.8,30.01,SSW,203,7.2,7.2,71,0.00,,,0.00,WUHU216HW,2013-01-08 14:44:00,
2013-01-08 08:49:00,35.5,27.0,30.00,SSW,203,9.8,9.8,71,0.00,,,0.00,WUHU216HW,2013-01-08 14:49:00,
2013-01-08 08:54:00,35.6,27.2,30.01,SSW,203,4.7,9.8,71,0.00,,,0.00,WUHU216HW,2013-01-08 14:54:00,
2013-01-08 08:59:00,35.6,27.2,30.01,South,180,9.2,9.8,71,0.00,,,0.00,WUHU216HW,2013-01-08 14:59:00,
2013-01-08 09:04:00,35.6,27.2,30.01,SSW,203,7.2,9.2,71,0.00,,,0.00,WUHU216HW,2013-01-08 15:04:00,
2013-01-08 09:09:00,35.8,27.4,30.02,South,180,5.1,9.2,71,0.00,,,0.00,WUHU216HW,2013-01-08 15:09:00,
2013-01-08 09:14:00,35.8,27.4,30.01,SW,225,6.9,7.8,71,0.00,,,0.00,WUHU216HW,2013-01-08 15:14:00,
2013-01-08 09:19:00,36.0,27.6,30.01,South,180,8.3,8.3,71,0.00,,,0.00,WUHU216HW,2013-01-08 15:19:00,
2013-01-08 09:24:00,36.4,27.5,30.01,South,180,13.0,15.0,70,0.00,,,0.00,WUHU216HW,2013-01-08 15:24:00,
2013-01-08 09:29:00,36.5,27.4,30.02,SSW,203,8.9,15.0,69,0.00,,,0.00,WUHU216HW,2013-01-08 15:29:00,
2013-01-08 09:34:00,37.1,27.6,30.01,South,180,8.5,9.8,68,0.00,,,0.00,WUHU216HW,2013-01-08 15:34:00,
2013-01-08 09:39:00,38.2,28.2,30.01,South,180,8.9,9.8,67,0.00,,,0.00,WUHU216HW,2013-01-08 15:39:00,
2013-01-08 09:44:00,38.5,28.1,30.01,South,180,8.5,8.9,66,0.00,,,0.00,WUHU216HW,2013-01-08 15:44:00,
2013-01-08 09:49:00,39.6,28.4,30.01,SSW,203,9.4,9.4,64,0.00,,,0.00,WUHU216HW,2013-01-08 15:49:00,
2013-01-08 09:54:00,40.0,28.4,30.01,SSW,203,8.7,9.4,63,0.00,,,0.00,WUHU216HW,2013-01-08 15:54:00,
2013-01-08 09:59:00,40.7,28.6,30.01,SW,225,9.8,9.8,62,0.00,,,0.00,WUHU216HW,2013-01-08 15:59:00,
2013-01-08 10:04:00,41.2,28.8,30.01,SW,225,11.6,11.6,61,0.00,,,0.00,WUHU216HW,2013-01-08 16:04:00,
2013-01-08 10:09:00,41.6,29.2,30.01,SSW,203,8.9,11.6,61,0.00,,,0.00,WUHU216HW,2013-01-08 16:09:00,
2013-01-08 10:14:00,41.9,29.1,30.02,South,180,7.2,11.4,60,0.00,,,0.00,WUHU216HW,2013-01-08 16:14:00,
2013-01-08 10:19:00,42.5,28.7,30.02,SSW,203,9.8,9.8,58,0.00,,,0.00,WUHU216HW,2013-01-08 16:19:00,
2013-01-08 10:24:00,42.8,29.4,30.02,South,180,8.5,9.8,59,0.00,,,0.00,WUHU216HW,2013-01-08 16:24:00,
2013-01-08 10:29:00,42.7,28.9,30.02,SSW,203,8.9,9.8,58,0.00,,,0.00,WUHU216HW,2013-01-08 16:29:00,
2013-01-08 10:34:00,43.2,29.3,30.01,SSW,203,7.6,8.9,58,0.00,,,0.00,WUHU216HW,2013-01-08 16:34:00,
2013-01-08 10:39:00,43.4,29.5,30.02,SW,225,8.3,8.3,58,0.00,,,0.00,WUHU216HW,2013-01-08 16:39:00,
2013-01-08 10:44:00,43.4,29.5,30.01,SSW,203,10.1,10.1,58,0.00,,,0.00,WUHU216HW,2013-01-08 16:44:00,
2013-01-08 10:49:00,43.7,29.4,30.01,South,180,11.6,11.6,57,0.00,,,0.00,WUHU216HW,2013-01-08 16:49:00,
2013-01-08 10:54:00,44.3,30.4,30.01,SSW,203,11.6,11.6,58,0.00,,,0.00,WUHU216HW,2013-01-08 16:54:00,
2013-01-08 10:59:00,44.6,30.8,30.00,South,180,13.2,13.2,58,0.00,,,0.00,WUHU216HW,2013-01-08 16:59:00,
2013-01-08 11:04:00,45.0,30.7,30.00,SSW,203,11.2,13.2,57,0.00,,,0.00,WUHU216HW,2013-01-08 17:04:00,
2013-01-08 11:09:00,44.6,29.9,30.00,SSW,203,11.4,14.1,56,0.00,,,0.00,WUHU216HW,2013-01-08 17:09:00,
2013-01-08 11:14:00,45.0,30.7,30.00,SSW,203,7.6,14.1,57,0.00,,,0.00,WUHU216HW,2013-01-08 17:14:00,
2013-01-08 11:19:00,45.5,31.1,30.00,SSW,203,10.7,11.4,57,0.00,,,0.00,WUHU216HW,2013-01-08 17:19:00,
2013-01-08 11:24:00,45.7,30.9,30.00,SSW,203,10.5,10.7,56,0.00,,,0.00,WUHU216HW,2013-01-08 17:24:00,
2013-01-08 11:29:00,45.7,31.3,30.00,SSW,203,14.1,14.1,57,0.00,,,0.00,WUHU216HW,2013-01-08 17:29:00,
2013-01-08 11:34:00,45.5,30.7,30.00,SSW,203,15.0,15.0,56,0.00,,,0.00,WUHU216HW,2013-01-08 17:34:00,
2013-01-08 11:39:00,46.1,31.1,29.99,SSW,203,12.3,15.0,56,0.00,,,0.00,WUHU216HW,2013-01-08 17:39:00,
2013-01-08 11:44:00,45.7,30.9,29.99,South,180,13.2,15.0,56,0.00,,,0.00,WUHU216HW,2013-01-08 17:44:00,
2013-01-08 11:49:00,46.1,31.1,29.99,SSW,203,9.6,13.2,56,0.00,,,0.00,WUHU216HW,2013-01-08 17:49:00,
2013-01-08 11:54:00,46.6,31.7,29.99,SSW,203,8.5,9.6,56,0.00,,,0.00,WUHU216HW,2013-01-08 17:54:00,
2013-01-08 11:59:00,47.0,31.2,29.98,South,180,13.9,13.9,54,0.00,,,0.00,WUHU216HW,2013-01-08 17:59:00,
2013-01-08 12:04:00,47.2,31.8,29.98,South,180,7.6,13.9,55,0.00,,,0.00,WUHU216HW,2013-01-08 18:04:00,
2013-01-08 12:09:00,47.5,31.6,29.98,SSW,203,12.8,13.9,54,0.00,,,0.00,WUHU216HW,2013-01-08 18:09:00,
2013-01-08 12:14:00,48.2,32.3,29.97,SSW,203,8.5,12.8,54,0.00,,,0.00,WUHU216HW,2013-01-08 18:14:00,
2013-01-08 12:19:00,48.4,32.1,29.97,South,180,12.1,12.1,53,0.00,,,0.00,WUHU216HW,2013-01-08 18:19:00,
2013-01-08 12:24:00,48.1,32.1,29.96,South,180,8.5,12.1,54,0.00,,,0.00,WUHU216HW,2013-01-08 18:24:00,
2013-01-08 12:29:00,49.0,32.0,29.96,SSW,203,10.5,12.1,52,0.00,,,0.00,WUHU216HW,2013-01-08 18:29:00,
2013-01-08 12:34:00,48.6,31.7,29.96,SSW,203,13.4,13.4,52,0.00,,,0.00,WUHU216HW,2013-01-08 18:34:00,
2013-01-08 12:39:00,48.8,31.4,29.96,SSW,203,9.8,15.4,51,0.00,,,0.00,WUHU216HW,2013-01-08 18:39:00,
2013-01-08 12:44:00,49.3,32.4,29.96,SSW,203,11.4,15.4,52,0.00,,,0.00,WUHU216HW,2013-01-08 18:44:00,
2013-01-08 12:49:00,49.9,32.5,29.95,SSW,203,11.0,11.4,51,0.00,,,0.00,WUHU216HW,2013-01-08 18:49:00,
2013-01-08 12:54:00,49.5,32.6,29.95,South,180,13.2,13.2,52,0.00,,,0.00,WUHU216HW,2013-01-08 18:54:00,
2013-01-08 12:59:00,50.0,32.7,29.95,South,180,13.6,14.3,51,0.00,,,0.00,WUHU216HW,2013-01-08 18:59:00,
2013-01-08 13:04:00,50.4,33.0,29.95,SSW,203,7.6,14.3,51,0.00,,,0.00,WUHU216HW,2013-01-08 19:04:00,
2013-01-08 13:09:00,50.6,32.7,29.95,SSW,203,9.8,16.3,50,0.00,,,0.00,WUHU216HW,2013-01-08 19:09:00,
2013-01-08 13:14:00,50.9,32.5,29.94,South,180,10.7,16.3,49,0.00,,,0.00,WUHU216HW,2013-01-08 19:14:00,
2013-01-08 13:19:00,51.1,33.2,29.94,South,180,11.2,11.2,50,0.00,,,0.00,WUHU216HW,2013-01-08 19:19:00,
2013-01-08 13:24:00,51.3,32.2,29.94,SSW,203,10.5,11.2,48,0.00,,,0.00,WUHU216HW,2013-01-08 19:24:00,
2013-01-08 13:29:00,51.8,33.3,29.94,SSW,203,11.6,11.6,49,0.00,,,0.00,WUHU216HW,2013-01-08 19:29:00,
2013-01-08 13:34:00,52.0,32.9,29.94,SSW,203,12.8,12.8,48,0.00,,,0.00,WUHU216HW,2013-01-08 19:34:00,
2013-01-08 13:39:00,51.8,32.8,29.94,South,180,15.0,15.0,48,0.00,,,0.00,WUHU216HW,2013-01-08 19:39:00,
2013-01-08 13:44:00,51.8,32.8,29.94,SSW,203,12.5,15.0,48,0.00,,,0.00,WUHU216HW,2013-01-08 19:44:00,
2013-01-08 13:49:00,52.4,33.8,29.93,SSE,158,12.1,12.5,49,0.00,,,0.00,WUHU216HW,2013-01-08 19:49:00,
2013-01-08 13:54:00,52.7,32.9,29.93,South,180,15.0,15.0,47,0.00,,,0.00,WUHU216HW,2013-01-08 19:54:00,
2013-01-08 13:59:00,52.6,32.9,29.93,SSW,203,15.0,15.0,47,0.00,,,0.00,WUHU216HW,2013-01-08 19:59:00,
2013-01-08 14:04:00,52.9,33.1,29.93,South,180,13.4,15.0,47,0.00,,,0.00,WUHU216HW,2013-01-08 20:04:00,
2013-01-08 14:09:00,53.1,33.3,29.94,South,180,13.2,15.0,47,0.00,,,0.00,WUHU216HW,2013-01-08 20:09:00,
2013-01-08 14:14:00,53.3,33.5,29.94,SSW,203,13.4,13.4,47,0.00,,,0.00,WUHU216HW,2013-01-08 20:14:00,
2013-01-08 14:19:00,53.6,33.8,29.94,SSW,203,8.1,13.4,47,0.00,,,0.00,WUHU216HW,2013-01-08 20:19:00,
2013-01-08 14:24:00,53.6,33.8,29.94,SSW,203,8.5,13.4,47,0.00,,,0.00,WUHU216HW,2013-01-08 20:24:00,
2013-01-08 14:29:00,53.8,33.9,29.94,SSW,203,11.4,11.4,47,0.00,,,0.00,WUHU216HW,2013-01-08 20:29:00,
2013-01-08 14:34:00,54.0,33.6,29.94,SSW,203,14.5,14.5,46,0.00,,,0.00,WUHU216HW,2013-01-08 20:34:00,
2013-01-08 14:39:00,54.4,33.8,29.95,SSW,203,16.1,16.1,46,0.00,,,0.00,WUHU216HW,2013-01-08 20:39:00,
2013-01-08 14:44:00,54.7,34.2,29.95,SW,225,15.0,16.1,46,0.00,,,0.00,WUHU216HW,2013-01-08 20:44:00,
2013-01-08 14:49:00,54.4,33.8,29.95,SSW,203,13.6,16.1,46,0.00,,,0.00,WUHU216HW,2013-01-08 20:49:00,
2013-01-08 14:54:00,54.0,33.6,29.95,SW,225,9.8,13.6,46,0.00,,,0.00,WUHU216HW,2013-01-08 20:54:00,
2013-01-08 14:59:00,53.6,33.2,29.95,South,180,9.2,13.6,46,0.00,,,0.00,WUHU216HW,2013-01-08 20:59:00,
2013-01-08 15:04:00,53.6,33.8,29.95,SW,225,10.5,10.5,47,0.00,,,0.00,WUHU216HW,2013-01-08 21:04:00,
2013-01-08 15:09:00,54.0,34.1,29.95,SSW,203,8.9,10.5,47,0.00,,,0.00,WUHU216HW,2013-01-08 21:09:00,
2013-01-08 15:14:00,54.0,34.1,29.95,SSW,203,8.9,9.8,47,0.00,,,0.00,WUHU216HW,2013-01-08 21:14:00,
2013-01-08 15:19:00,52.9,33.1,29.95,SSW,203,11.0,11.0,47,0.00,,,0.00,WUHU216HW,2013-01-08 21:19:00,
2013-01-08 15:24:00,53.5,33.7,29.95,SW,225,9.8,11.0,47,0.00,,,0.00,WUHU216HW,2013-01-08 21:24:00,
2013-01-08 15:29:00,54.5,35.2,29.95,SSW,203,9.8,11.0,48,0.00,,,0.00,WUHU216HW,2013-01-08 21:29:00,
2013-01-08 15:34:00,55.1,34.6,29.95,SSW,203,11.4,11.4,46,0.00,,,0.00,WUHU216HW,2013-01-08 21:34:00,
2013-01-08 15:39:00,53.3,33.5,29.95,SSW,203,11.2,11.4,47,0.00,,,0.00,WUHU216HW,2013-01-08 21:39:00,
2013-01-08 15:44:00,52.6,33.9,29.95,SW,225,6.9,11.2,49,0.00,,,0.00,WUHU216HW,2013-01-08 21:44:00,
2013-01-08 15:49:00,52.6,33.9,29.95,South,180,6.5,11.2,49,0.00,,,0.00,WUHU216HW,2013-01-08 21:49:00,
2013-01-08 15:54:00,52.2,33.6,29.95,South,180,8.5,8.5,49,0.00,,,0.00,WUHU216HW,2013-01-08 21:54:00,
2013-01-08 15:59:00,51.8,34.3,29.95,SSE,158,7.8,11.2,51,0.00,,,0.00,WUHU216HW,2013-01-08 21:59:00,
2013-01-08 16:04:00,51.8,34.3,29.95,SSW,203,7.6,11.2,51,0.00,,,0.00,WUHU216HW,2013-01-08 22:04:00,
2013-01-08 16:09:00,52.4,34.3,29.96,SSW,203,6.9,7.6,50,0.00,,,0.00,WUHU216HW,2013-01-08 22:09:00,
2013-01-08 16:14:00,52.9,34.8,29.96,SSW,203,7.6,7.6,50,0.00,,,0.00,WUHU216HW,2013-01-08 22:14:00,
2013-01-08 16:19:00,51.7,34.1,29.96,SSW,203,6.3,7.6,51,0.00,,,0.00,WUHU216HW,2013-01-08 22:19:00,
2013-01-08 16:24:00,51.1,34.1,29.96,SSW,203,7.6,7.6,52,0.00,,,0.00,WUHU216HW,2013-01-08 22:24:00,
2013-01-08 16:29:00,51.1,34.1,29.96,SSW,203,6.0,7.6,52,0.00,,,0.00,WUHU216HW,2013-01-08 22:29:00,
2013-01-08 16:34:00,51.7,34.6,29.96,SSW,203,7.4,8.5,52,0.00,,,0.00,WUHU216HW,2013-01-08 22:34:00,
2013-01-08 16:39:00,51.8,35.2,29.96,SSW,203,6.3,8.5,53,0.00,,,0.00,WUHU216HW,2013-01-08 22:39:00,
2013-01-08 16:44:00,51.7,35.5,29.96,South,180,9.2,9.2,54,0.00,,,0.00,WUHU216HW,2013-01-08 22:44:00,
2013-01-08 16:49:00,51.3,35.7,29.96,SSW,203,6.3,9.2,55,0.00,,,0.00,WUHU216HW,2013-01-08 22:49:00,
2013-01-08 16:54:00,50.2,35.6,29.96,SW,225,7.4,10.1,57,0.00,,,0.00,WUHU216HW,2013-01-08 22:54:00,
2013-01-08 16:59:00,50.0,35.8,29.96,SSW,203,4.7,10.1,58,0.00,,,0.00,WUHU216HW,2013-01-08 22:59:00,
2013-01-08 17:04:00,49.5,35.8,29.96,SSW,203,7.2,7.4,59,0.00,,,0.00,WUHU216HW,2013-01-08 23:04:00,
2013-01-08 17:09:00,49.3,35.7,29.96,SSW,203,6.9,7.8,59,0.00,,,0.00,WUHU216HW,2013-01-08 23:09:00,
2013-01-08 17:14:00,49.0,35.7,29.96,South,180,8.5,8.5,60,0.00,,,0.00,WUHU216HW,2013-01-08 23:14:00,
2013-01-08 17:19:00,49.0,35.7,29.96,South,180,7.6,8.5,60,0.00,,,0.00,WUHU216HW,2013-01-08 23:19:00,
2013-01-08 17:24:00,49.0,36.1,29.96,South,180,7.4,8.5,61,0.00,,,0.00,WUHU216HW,2013-01-08 23:24:00,
2013-01-08 17:29:00,48.6,35.8,29.96,SSW,203,8.5,8.9,61,0.00,,,0.00,WUHU216HW,2013-01-08 23:29:00,
2013-01-08 17:34:00,48.2,35.8,29.97,SSW,203,6.3,8.9,62,0.00,,,0.00,WUHU216HW,2013-01-08 23:34:00,
2013-01-08 17:39:00,47.9,35.9,29.97,South,180,8.5,8.9,63,0.00,,,0.00,WUHU216HW,2013-01-08 23:39:00,
2013-01-08 17:44:00,47.9,35.9,29.97,South,180,5.4,8.5,63,0.00,,,0.00,WUHU216HW,2013-01-08 23:44:00,
2013-01-08 17:49:00,47.7,36.1,29.97,SSW,203,5.8,8.5,64,0.00,,,0.00,WUHU216HW,2013-01-08 23:49:00,
2013-01-08 17:54:00,47.5,35.9,29.98,SW,225,3.4,5.8,64,0.00,,,0.00,WUHU216HW,2013-01-08 23:54:00,
2013-01-08 17:59:00,47.5,36.3,29.98,SSW,203,3.6,6.5,65,0.00,,,0.00,WUHU216HW,2013-01-08 23:59:00,
2013-01-08 18:04:00,47.2,36.4,29.98,SSW,203,6.5,6.5,66,0.00,,,0.00,WUHU216HW,2013-01-09 00:04:00,
2013-01-08 18:09:00,47.2,36.4,29.98,South,180,5.8,6.5,66,0.00,,,0.00,WUHU216HW,2013-01-09 00:09:00,
2013-01-08 18:14:00,47.0,37.0,29.98,SSW,203,6.3,6.5,68,0.00,,,0.00,WUHU216HW,2013-01-09 00:14:00,
2013-01-08 18:19:00,47.2,37.2,29.98,South,180,4.7,6.5,68,0.00,,,0.00,WUHU216HW,2013-01-09 00:19:00,
2013-01-08 18:24:00,47.3,37.3,29.99,SSW,203,6.5,7.4,68,0.00,,,0.00,WUHU216HW,2013-01-09 00:24:00,
2013-01-08 18:29:00,47.5,37.4,29.99,South,180,4.9,7.4,68,0.00,,,0.00,WUHU216HW,2013-01-09 00:29:00,
2013-01-08 18:34:00,47.5,37.1,29.99,South,180,6.3,6.5,67,0.00,,,0.00,WUHU216HW,2013-01-09 00:34:00,
2013-01-08 18:39:00,47.9,37.5,29.99,SSW,203,6.3,6.3,67,0.00,,,0.00,WUHU216HW,2013-01-09 00:39:00,
2013-01-08 18:44:00,47.7,37.3,29.99,SSW,203,5.1,6.3,67,0.00,,,0.00,WUHU216HW,2013-01-09 00:44:00,
2013-01-08 18:49:00,47.7,37.3,29.99,SSW,203,6.5,6.5,67,0.00,,,0.00,WUHU216HW,2013-01-09 00:49:00,
2013-01-08 18:54:00,47.9,37.5,30.00,SW,225,4.9,6.5,67,0.00,,,0.00,WUHU216HW,2013-01-09 00:54:00,
2013-01-08 18:59:00,47.9,37.5,30.00,WSW,248,4.5,6.5,67,0.00,,,0.00,WUHU216HW,2013-01-09 00:59:00,
2013-01-08 19:04:00,47.9,37.5,30.00,South,180,6.9,6.9,67,0.00,,,0.00,WUHU216HW,2013-01-09 01:04:00,
2013-01-08 19:09:00,48.1,37.6,30.01,SSW,203,7.4,7.4,67,0.00,,,0.00,WUHU216HW,2013-01-09 01:09:00,
2013-01-08 19:14:00,48.2,37.7,30.01,SSW,203,6.9,7.4,67,0.00,,,0.00,WUHU216HW,2013-01-09 01:14:00,
2013-01-08 19:19:00,48.6,37.7,30.01,SSW,203,6.5,7.4,66,0.00,,,0.00,WUHU216HW,2013-01-09 01:19:00,
2013-01-08 19:24:00,48.6,37.7,30.02,SSW,203,8.1,9.2,66,0.00,,,0.00,WUHU216HW,2013-01-09 01:24:00,
2013-01-08 19:29:00,48.4,37.5,30.02,SSW,203,4.7,9.2,66,0.00,,,0.00,WUHU216HW,2013-01-09 01:29:00,
2013-01-08 19:34:00,48.6,37.7,30.02,SSW,203,6.3,8.1,66,0.00,,,0.00,WUHU216HW,2013-01-09 01:34:00,
2013-01-08 19:39:00,48.4,37.5,30.02,SW,225,6.3,7.2,66,0.00,,,0.00,WUHU216HW,2013-01-09 01:39:00,
2013-01-08 19:44:00,48.4,37.5,30.02,South,180,5.1,6.7,66,0.00,,,0.00,WUHU216HW,2013-01-09 01:44:00,
2013-01-08 19:49:00,48.2,37.4,30.02,SSW,203,5.6,6.3,66,0.00,,,0.00,WUHU216HW,2013-01-09 01:49:00,
2013-01-08 19:54:00,48.2,37.4,30.02,SSW,203,8.5,8.5,66,0.00,,,0.00,WUHU216HW,2013-01-09 01:54:00,
2013-01-08 19:59:00,48.2,37.4,30.02,SW,225,7.4,8.5,66,0.00,,,0.00,WUHU216HW,2013-01-09 01:59:00,
2013-01-08 20:04:00,48.2,37.4,30.03,SSW,203,6.5,8.5,66,0.00,,,0.00,WUHU216HW,2013-01-09 02:04:00,
2013-01-08 20:09:00,48.1,37.2,30.03,SSW,203,4.9,7.6,66,0.00,,,0.00,WUHU216HW,2013-01-09 02:09:00,
2013-01-08 20:14:00,47.9,37.0,30.03,WSW,248,5.4,5.4,66,0.00,,,0.00,WUHU216HW,2013-01-09 02:14:00,
2013-01-08 20:19:00,47.9,37.5,30.02,WSW,248,5.8,6.3,67,0.00,,,0.00,WUHU216HW,2013-01-09 02:19:00,
2013-01-08 20:24:00,47.9,37.5,30.03,SW,225,5.4,6.3,67,0.00,,,0.00,WUHU216HW,2013-01-09 02:24:00,
2013-01-08 20:29:00,47.9,37.5,30.02,SW,225,6.9,6.9,67,0.00,,,0.00,WUHU216HW,2013-01-09 02:29:00,
2013-01-08 20:34:00,47.9,37.5,30.03,South,180,5.1,6.9,67,0.00,,,0.00,WUHU216HW,2013-01-09 02:34:00,
2013-01-08 20:39:00,47.9,37.5,30.03,SW,225,5.6,6.9,67,0.00,,,0.00,WUHU216HW,2013-01-09 02:39:00,
2013-01-08 20:44:00,47.9,37.5,30.03,WSW,248,6.7,6.9,67,0.00,,,0.00,WUHU216HW,2013-01-09 02:44:00,
2013-01-08 20:49:00,47.7,37.3,30.03,West,270,7.6,8.5,67,0.00,,,0.00,WUHU216HW,2013-01-09 02:49:00,
2013-01-08 20:54:00,47.5,37.1,30.03,SSW,203,5.8,8.5,67,0.00,,,0.00,WUHU216HW,2013-01-09 02:54:00,
2013-01-08 20:59:00,47.2,37.2,30.04,SSW,203,4.7,7.6,68,0.00,,,0.00,WUHU216HW,2013-01-09 02:59:00,
2013-01-08 21:04:00,46.8,36.8,30.04,SSW,203,4.0,6.5,68,0.00,,,0.00,WUHU216HW,2013-01-09 03:04:00,
2013-01-08 21:09:00,46.6,36.6,30.04,SW,225,3.6,5.1,68,0.00,,,0.00,WUHU216HW,2013-01-09 03:09:00,
2013-01-08 21:14:00,46.3,36.7,30.04,SSW,203,5.8,5.8,69,0.00,,,0.00,WUHU216HW,2013-01-09 03:14:00,
2013-01-08 21:19:00,45.9,36.7,30.05,SSW,203,6.0,6.0,70,0.00,,,0.00,WUHU216HW,2013-01-09 03:19:00,
2013-01-08 21:24:00,45.9,36.7,30.05,SSW,203,5.1,6.0,70,0.00,,,0.00,WUHU216HW,2013-01-09 03:24:00,
2013-01-08 21:29:00,45.7,36.9,30.06,SW,225,6.9,6.9,71,0.00,,,0.00,WUHU216HW,2013-01-09 03:29:00,
2013-01-08 21:34:00,45.5,36.7,30.06,SSW,203,4.5,6.9,71,0.00,,,0.00,WUHU216HW,2013-01-09 03:34:00,
2013-01-08 21:39:00,45.4,36.9,30.06,South,180,5.1,5.1,72,0.00,,,0.00,WUHU216HW,2013-01-09 03:39:00,
2013-01-08 21:44:00,45.4,36.6,30.06,SSW,203,4.5,5.1,71,0.00,,,0.00,WUHU216HW,2013-01-09 03:44:00,
2013-01-08 21:49:00,45.0,36.6,30.06,SSW,203,5.4,5.4,72,0.00,,,0.00,WUHU216HW,2013-01-09 03:49:00,
2013-01-08 21:54:00,44.8,36.4,30.06,SSW,203,5.8,5.8,72,0.00,,,0.00,WUHU216HW,2013-01-09 03:54:00,
2013-01-08 21:59:00,44.8,36.4,30.06,SSW,203,4.5,5.8,72,0.00,,,0.00,WUHU216HW,2013-01-09 03:59:00,
2013-01-08 22:04:00,45.0,36.6,30.06,South,180,4.0,5.8,72,0.00,,,0.00,WUHU216HW,2013-01-09 04:04:00,
2013-01-08 22:09:00,45.0,36.6,30.06,SSW,203,3.4,5.4,72,0.00,,,0.00,WUHU216HW,2013-01-09 04:09:00,
2013-01-08 22:14:00,44.6,36.2,30.07,SW,225,6.3,6.3,72,0.00,,,0.00,WUHU216HW,2013-01-09 04:14:00,
2013-01-08 22:19:00,44.6,36.5,30.07,SSW,203,6.0,6.3,73,0.00,,,0.00,WUHU216HW,2013-01-09 04:19:00,
2013-01-08 22:24:00,44.6,36.5,30.07,SSW,203,6.3,6.3,73,0.00,,,0.00,WUHU216HW,2013-01-09 04:24:00,
2013-01-08 22:29:00,44.6,36.2,30.07,SSW,203,4.9,6.3,72,0.00,,,0.00,WUHU216HW,2013-01-09 04:29:00,
2013-01-08 22:34:00,44.5,36.4,30.08,SW,225,8.1,8.1,73,0.00,,,0.00,WUHU216HW,2013-01-09 04:34:00,
2013-01-08 22:39:00,44.3,36.2,30.08,SW,225,2.2,8.1,73,0.00,,,0.00,WUHU216HW,2013-01-09 04:39:00,
2013-01-08 22:44:00,44.1,36.0,30.08,SSW,203,2.9,8.1,73,0.00,,,0.00,WUHU216HW,2013-01-09 04:44:00,
2013-01-08 22:49:00,44.1,36.0,30.09,SW,225,2.0,3.4,73,0.00,,,0.00,WUHU216HW,2013-01-09 04:49:00,
2013-01-08 22:54:00,43.9,35.8,30.09,SW,225,1.8,4.0,73,0.00,,,0.00,WUHU216HW,2013-01-09 04:54:00,
2013-01-08 22:59:00,43.9,35.8,30.10,SSW,203,2.0,4.0,73,0.00,,,0.00,WUHU216HW,2013-01-09 04:59:00,
2013-01-08 23:00:00,43.9,35.8,30.10,SSW,203,2.0,4.0,73,0.00,,,0.00,WUHU216HW,2013-01-09 05:00:00,
2013-01-08 23:02:00,43.9,35.8,30.10,SSW,203,2.0,4.0,73,0.00,,,0.00,WUHU216HW,2013-01-09 05:02:00,
2013-01-08 23:03:00,43.6,35.2,30.10,WSW,248,0.7,4.0,72,0.00,,,0.00,WUHU216HW,2013-01-09 05:03:00,
2013-01-08 23:08:00,43.0,35.3,30.10,SSW,203,2.5,2.5,74,0.00,,,0.00,WUHU216HW,2013-01-09 05:08:00,
2013-01-08 23:13:00,42.8,35.5,30.11,SW,225,2.5,4.9,75,0.00,,,0.00,WUHU216HW,2013-01-09 05:13:00,
2013-01-08 23:18:00,43.0,35.3,30.11,WSW,248,1.8,4.9,74,0.00,,,0.00,WUHU216HW,2013-01-09 05:18:00,
2013-01-08 23:23:00,43.2,35.5,30.11,SW,225,2.0,4.0,74,0.00,,,0.00,WUHU216HW,2013-01-09 05:23:00,
2013-01-08 23:28:00,43.0,35.3,30.12,South,180,1.6,3.6,74,0.00,,,0.00,WUHU216HW,2013-01-09 05:28:00,
2013-01-08 23:33:00,43.0,35.3,30.12,West,270,4.0,4.3,74,0.00,,,0.00,WUHU216HW,2013-01-09 05:33:00,
2013-01-08 23:38:00,42.7,34.9,30.12,SSW,203,2.5,4.3,74,0.00,,,0.00,WUHU216HW,2013-01-09 05:38:00,
2013-01-08 23:43:00,42.1,34.4,30.12,NW,315,2.0,4.0,74,0.00,,,0.00,WUHU216HW,2013-01-09 05:43:00,
2013-01-08 23:48:00,41.8,34.8,30.12,SW,225,0.7,4.0,76,0.00,,,0.00,WUHU216HW,2013-01-09 05:48:00,
2013-01-08 23:53:00,41.8,34.8,30.12,SW,225,2.7,4.0,76,0.00,,,0.00,WUHU216HW,2013-01-09 05:53:00,
2013-01-08 23:58:00,41.4,34.4,30.12,South,180,1.1,2.7,76,0.00,,,0.00,WUHU216HW,2013-01-09 05:58:00,